When you browse on this site, cookies collect data to enhance your experience and personalize the content and advertising you see.
Visit our Privacy Policy to learn more. By continuing to use the site, you agree to this use of cookies and data.
  • In France
  • List of Countries
  • For 7 days
  • Water Temperature
  • Weather Map
  • Weather Widgets
  • user-avatar
    Login

    Hourly Weather Northallerton

    Today, 20 August, Tuesday

    Time Temperature Precipitation Wind Pressure Humidity
    00:00 +11°C° 0 mm 4 mps 756 mmHg 88%
    01:00 +11°C° 0 mm 4 mps 757 mmHg 89%
    02:00 +11°C° 0 mm 4 mps 757 mmHg 90%
    03:00 +11°C° 0 mm 3 mps 757 mmHg 90%
    04:00 +11°C° 0 mm 4 mps 757 mmHg 90%
    05:00 +11°C° 0 mm 4 mps 758 mmHg 89%
    06:00 +11°C° 0 mm 4 mps 758 mmHg 88%
    07:00 +12°C° 0 mm 4 mps 758 mmHg 82%
    08:00 +14°C° 0 mm 5 mps 759 mmHg 77%
    09:00 +15°C° 0 mm 6 mps 759 mmHg 71%
    10:00 +15°C° 0.1 mm 6 mps 760 mmHg 70%
    11:00 +16°C° 0.1 mm 6 mps 760 mmHg 69%
    12:00 +16°C° 0.1 mm 6 mps 761 mmHg 67%
    13:00 +17°C° 0.1 mm 6 mps 761 mmHg 67%
    14:00 +17°C° 0.1 mm 6 mps 761 mmHg 67%
    15:00 +17°C° 0.1 mm 6 mps 761 mmHg 66%
    16:00 +16°C° 0 mm 5 mps 761 mmHg 69%
    17:00 +15°C° 0 mm 5 mps 762 mmHg 71%
    18:00 +15°C° 0 mm 4 mps 762 mmHg 73%
    19:00 +13°C° 0 mm 4 mps 762 mmHg 77%
    20:00 +12°C° 0 mm 3 mps 763 mmHg 81%
    21:00 +12°C° 0 mm 2 mps 763 mmHg 85%
    22:00 +12°C° 0 mm 2 mps 763 mmHg 85%
    23:00 +13°C° 0 mm 2 mps 763 mmHg 86%

    Tomorrow, 21 August, Wednesday

    Time Temperature Precipitation Wind Pressure Humidity
    00:00 +13°C° 0 mm 2 mps 763 mmHg 86%
    01:00 +13°C° 0 mm 2 mps 763 mmHg 86%
    02:00 +12°C° 0 mm 3 mps 763 mmHg 86%
    03:00 +13°C° 0 mm 3 mps 763 mmHg 87%
    04:00 +13°C° 0 mm 3 mps 763 mmHg 89%
    05:00 +13°C° 0 mm 3 mps 763 mmHg 90%
    06:00 +13°C° 0 mm 3 mps 762 mmHg 92%
    07:00 +14°C° 0 mm 4 mps 763 mmHg 87%
    08:00 +17°C° 0 mm 4 mps 763 mmHg 81%
    09:00 +17°C° 0 mm 5 mps 763 mmHg 75%
    10:00 +17°C° 0.2 mm 5 mps 763 mmHg 72%
    11:00 +19°C° 0.2 mm 5 mps 762 mmHg 68%
    12:00 +20°C° 0.2 mm 6 mps 762 mmHg 65%
    13:00 +20°C° 0.2 mm 6 mps 762 mmHg 66%
    14:00 +20°C° 0.2 mm 5 mps 761 mmHg 66%
    15:00 +19°C° 0.2 mm 5 mps 761 mmHg 67%
    16:00 +19°C° 0.3 mm 5 mps 761 mmHg 71%
    17:00 +17°C° 0.3 mm 5 mps 761 mmHg 75%
    18:00 +17°C° 0.3 mm 4 mps 760 mmHg 79%
    19:00 +15°C° 0.1 mm 4 mps 760 mmHg 80%
    20:00 +15°C° 0.1 mm 4 mps 760 mmHg 81%
    21:00 +14°C° 0.1 mm 4 mps 760 mmHg 81%
    22:00 +14°C° 0.2 mm 5 mps 760 mmHg 83%
    23:00 +14°C° 0.2 mm 5 mps 760 mmHg 85%

    Day after tomorrow, 22 August, Thursday

    Time Temperature Precipitation Wind Pressure Humidity
    00:00 +14°C° 0.2 mm 5 mps 760 mmHg 87%
    01:00 +13°C° 0.2 mm 5 mps 760 mmHg 88%
    02:00 +13°C° 0.2 mm 4 mps 759 mmHg 90%
    03:00 +13°C° 0.2 mm 4 mps 759 mmHg 91%
    04:00 +13°C° 0.1 mm 4 mps 759 mmHg 91%
    05:00 +13°C° 0.1 mm 4 mps 760 mmHg 92%
    06:00 +14°C° 0.1 mm 4 mps 760 mmHg 92%
    07:00 +14°C° 0 mm 4 mps 760 mmHg 85%
    08:00 +15°C° 0 mm 5 mps 761 mmHg 79%
    09:00 +15°C° 0 mm 6 mps 761 mmHg 72%
    10:00 +16°C° 0 mm 6 mps 761 mmHg 69%
    11:00 +17°C° 0 mm 6 mps 761 mmHg 67%
    12:00 +17°C° 0 mm 6 mps 761 mmHg 64%
    13:00 +17°C° 0 mm 6 mps 761 mmHg 64%
    14:00 +17°C° 0 mm 6 mps 761 mmHg 63%
    15:00 +18°C° 0 mm 7 mps 761 mmHg 63%
    16:00 +17°C° 0 mm 6 mps 761 mmHg 66%
    17:00 +16°C° 0 mm 5 mps 761 mmHg 70%
    18:00 +16°C° 0 mm 5 mps 761 mmHg 73%
    19:00 +15°C° 0 mm 4 mps 761 mmHg 76%
    20:00 +15°C° 0 mm 4 mps 762 mmHg 78%
    21:00 +14°C° 0 mm 4 mps 762 mmHg 80%
    22:00 +15°C° 0 mm 4 mps 762 mmHg 81%
    23:00 +15°C° 0 mm 4 mps 762 mmHg 82%

    23 August, Friday

    Time Temperature Precipitation Wind Pressure Humidity
    00:00 +15°C° 0 mm 5 mps 762 mmHg 83%
    01:00 +15°C° 0 mm 4 mps 762 mmHg 85%
    02:00 +15°C° 0 mm 4 mps 762 mmHg 88%
    03:00 +14°C° 0 mm 4 mps 762 mmHg 90%
    04:00 +14°C° 0 mm 4 mps 762 mmHg 91%
    05:00 +15°C° 0 mm 4 mps 762 mmHg 91%
    06:00 +15°C° 0 mm 4 mps 762 mmHg 91%
    07:00 +17°C° 0 mm 4 mps 762 mmHg 87%
    08:00 +18°C° 0 mm 4 mps 763 mmHg 83%
    09:00 +19°C° 0 mm 5 mps 763 mmHg 78%
    10:00 +20°C° 0 mm 5 mps 763 mmHg 75%
    11:00 +21°C° 0 mm 5 mps 763 mmHg 72%
    12:00 +22°C° 0 mm 5 mps 763 mmHg 69%
    13:00 +22°C° 0 mm 5 mps 763 mmHg 68%
    14:00 +22°C° 0 mm 4 mps 763 mmHg 68%
    15:00 +22°C° 0 mm 4 mps 763 mmHg 67%
    16:00 +22°C° 0 mm 3 mps 763 mmHg 70%
    17:00 +21°C° 0 mm 3 mps 762 mmHg 73%
    18:00 +20°C° 0 mm 2 mps 762 mmHg 76%
    19:00 +19°C° 0 mm 2 mps 763 mmHg 79%
    20:00 +19°C° 0 mm 1 mps 763 mmHg 82%
    21:00 +18°C° 0 mm 1 mps 763 mmHg 85%
    22:00 +15°C° 0 mm 0 mps 763 mmHg 86%
    23:00 +15°C° 0 mm 0 mps 763 mmHg 86%

    24 August, Saturday

    Time Temperature Precipitation Wind Pressure Humidity
    00:00 +15°C° 0 mm 0 mps 762 mmHg 86%
    01:00 +15°C° 0 mm 0 mps 762 mmHg 87%
    02:00 +15°C° 0 mm 0 mps 762 mmHg 89%
    03:00 +15°C° 0 mm 0 mps 762 mmHg 90%
    04:00 +16°C° 0 mm 1 mps 761 mmHg 90%
    05:00 +16°C° 0 mm 1 mps 761 mmHg 91%
    06:00 +16°C° 0 mm 1 mps 761 mmHg 91%
    07:00 +18°C° 0 mm 1 mps 761 mmHg 86%
    08:00 +19°C° 0 mm 2 mps 761 mmHg 82%
    09:00 +20°C° 0 mm 2 mps 761 mmHg 77%
    10:00 +21°C° 0 mm 3 mps 761 mmHg 73%
    11:00 +22°C° 0 mm 3 mps 760 mmHg 69%
    12:00 +24°C° 0 mm 3 mps 760 mmHg 65%
    13:00 +23°C° 0.1 mm 4 mps 760 mmHg 64%
    14:00 +25°C° 0.1 mm 4 mps 759 mmHg 62%
    15:00 +25°C° 0.1 mm 4 mps 759 mmHg 61%
    16:00 +23°C° 0.1 mm 4 mps 759 mmHg 63%
    17:00 +22°C° 0.1 mm 3 mps 759 mmHg 66%
    18:00 +21°C° 0.1 mm 3 mps 758 mmHg 68%
    19:00 +20°C° 0 mm 2 mps 758 mmHg 71%
    20:00 +19°C° 0 mm 2 mps 758 mmHg 74%
    21:00 +18°C° 0 mm 2 mps 758 mmHg 77%
    22:00 +18°C° 0 mm 1 mps 758 mmHg 80%
    23:00 +18°C° 0 mm 1 mps 758 mmHg 82%

    25 August, Sunday

    Time Temperature Precipitation Wind Pressure Humidity
    00:00 +16°C° 0 mm 1 mps 758 mmHg 84%
    01:00 +16°C° 0 mm 1 mps 758 mmHg 85%
    02:00 +16°C° 0 mm 1 mps 757 mmHg 85%
    03:00 +15°C° 0 mm 1 mps 757 mmHg 86%
    04:00 +15°C° 0.1 mm 1 mps 757 mmHg 85%
    05:00 +16°C° 0.1 mm 1 mps 757 mmHg 85%
    06:00 +16°C° 0.1 mm 1 mps 757 mmHg 84%
    07:00 +18°C° 0 mm 1 mps 757 mmHg 78%
    08:00 +20°C° 0 mm 1 mps 757 mmHg 73%
    09:00 +21°C° 0 mm 1 mps 757 mmHg 67%
    10:00 +22°C° 0 mm 1 mps 757 mmHg 63%
    11:00 +23°C° 0 mm 2 mps 757 mmHg 59%
    12:00 +23°C° 0 mm 2 mps 757 mmHg 55%
    13:00 +22°C° 0 mm 3 mps 757 mmHg 57%
    14:00 +22°C° 0 mm 3 mps 758 mmHg 58%
    15:00 +22°C° 0 mm 4 mps 758 mmHg 59%
    16:00 +21°C° 0 mm 3 mps 758 mmHg 64%
    17:00 +20°C° 0 mm 3 mps 758 mmHg 69%
    18:00 +19°C° 0 mm 3 mps 758 mmHg 74%
    19:00 +17°C° 0 mm 3 mps 759 mmHg 78%
    20:00 +16°C° 0 mm 2 mps 759 mmHg 82%
    21:00 +14°C° 0 mm 2 mps 760 mmHg 86%
    22:00 +14°C° 0 mm 2 mps 760 mmHg 86%
    23:00 +13°C° 0 mm 2 mps 760 mmHg 87%
    Show more